This demonstration page uses our WeatherBlox Daily Observations layout. Learn more.

Left ArrowRight Arrow

Hourly Observations for August 28, 2015

Temp ( °F °C ) Dew Point ( °F °C ) Humidity (%) Winds ( mph kmh ) Pressure ( in mb ) Visibility ( mi km ) Precip ( " mm )
12:15 am 00:15 Clear 72 22 63 17 73 73 SSW 9 15 29.80 1009 10 16 0.00 0.00
12:35 am 00:35 Clear 72 22 64 18 78 78 SSW 13 20 29.80 1009 10 16 0.00 0.00
12:55 am 00:55 Clear 72 22 64 18 78 78 SSW 9 15 29.80 1009 10 16 0.00 0.00
1:15 am 01:15 Clear 72 22 63 17 73 73 SSW 9 15 29.80 1009 10 16 0.00 0.00
1:35 am 01:35 Clear 72 22 63 17 73 73 SSW 12 19 29.80 1009 10 16 0.00 0.00
1:55 am 01:55 Clear 72 22 63 17 73 73 SW 12 19 29.80 1009 10 16 0.00 0.00
2:15 am 02:15 Clear 72 22 63 17 73 73 WSW 9 15 29.74 1007 10 16 0.00 0.00
2:35 am 02:35 Clear 72 22 64 18 78 78 SW 7 11 29.74 1007 10 16 0.00 0.00
2:55 am 02:55 Clear 70 21 64 18 83 83 W 7 11 29.77 1008 10 16 0.00 0.00
3:15 am 03:15 Clear 70 21 63 17 78 78 WSW 6 9 29.80 1009 10 16 0.00 0.00
3:35 am 03:35 Mostly Clear 68 20 63 17 83 83 WNW 6 9 29.77 1008 10 16 0.00 0.00
3:55 am 03:55 Mostly Cloudy 66 19 63 17 88 88 W 6 9 29.77 1008 10 16 0.00 0.00
4:15 am 04:15 Cloudy 68 20 64 18 88 88 WNW 9 15 29.77 1008 8 13 0.00 0.00
4:35 am 04:35 Cloudy 68 20 64 18 88 88 WNW 9 15 29.80 1009 8 13 0.00 0.00
4:55 am 04:55 Cloudy 68 20 64 18 88 88 NW 7 11 29.80 1009 10 16 0.00 0.00
5:15 am 05:15 Cloudy 68 20 64 18 88 88 NW 9 15 29.80 1009 10 16 0.00 0.00
5:35 am 05:35 Cloudy 68 20 64 18 88 88 NW 10 17 29.80 1009 10 16 0.00 0.00
5:55 am 05:55 Cloudy 70 21 64 18 83 83 NW 9 15 29.80 1009 10 16 0.00 0.00
6:15 am 06:15 Cloudy 70 21 64 18 83 83 NW 10 17 29.80 1009 9 14 0.00 0.00
6:35 am 06:35 Cloudy 70 21 64 18 83 83 NW 13 20 29.80 1009 10 16 0.00 0.00
6:55 am 06:55 Cloudy 70 21 64 18 83 83 NW 10 17 29.80 1009 10 16 0.00 0.00
7:15 am 07:15 Cloudy 70 21 64 18 83 83 NW 10 17 29.80 1009 9 14 0.00 0.00
7:35 am 07:35 Cloudy 70 21 64 18 83 83 NNW 13 20 29.80 1009 9 14 0.00 0.00
7:55 am 07:55 Cloudy 70 21 64 18 83 83 NNW 13 20 29.80 1009 10 16 0.00 0.00
8:15 am 08:15 Cloudy 70 21 64 18 83 83 NNW 14 22 29.83 1010 10 16 0.00 0.00
8:35 am 08:35 Cloudy 70 21 64 18 83 83 NW 9 15 29.80 1009 10 16 0.00 0.00
8:55 am 08:55 Mostly Cloudy 72 22 64 18 78 78 WNW 8 13 29.83 1010 10 16 0.00 0.00
9:15 am 09:15 Mostly Cloudy 72 22 64 18 78 78 NW 9 15 29.83 1010 10 16 0.00 0.00
9:35 am 09:35 Cloudy 72 22 64 18 78 78 NW 14 22 29.83 1010 10 16 0.00 0.00
9:55 am 09:55 Cloudy 72 22 63 17 73 73 NW 13 20 29.85 1011 10 16 0.00 0.00
10:15 am 10:15 Cloudy 70 21 63 17 78 78 NW 9 15 29.85 1011 10 16 0.00 0.00
10:35 am 10:35 Cloudy 70 21 63 17 78 78 NW 8 13 29.85 1011 10 16 0.00 0.00
10:55 am 10:55 Cloudy 72 22 63 17 73 73 NW 8 13 29.85 1011 10 16 0.00 0.00
11:15 am 11:15 Cloudy 73 23 63 17 69 69 NNW 8 13 29.83 1010 10 16 0.00 0.00
11:35 am 11:35 Cloudy 73 23 63 17 69 69 N 8 13 29.83 1010 10 16 0.00 0.00
11:55 am 11:55 Cloudy 75 24 63 17 65 65 N 9 15 29.83 1010 10 16 0.00 0.00
12:15 pm 12:15 Mostly Cloudy 75 24 64 18 69 69 N 13 20 29.85 1011 10 16 0.00 0.00
12:35 pm 12:35 Cloudy 73 23 64 18 74 74 NNE 14 22 29.85 1011 10 16 0.00 0.00
12:55 pm 12:55 Cloudy 75 24 63 17 65 65 NNE 10 17 29.85 1011 10 16 0.00 0.00
1:15 pm 13:15 Cloudy 75 24 63 17 65 65 N 20 31 29.85 1011 10 16 0.00 0.00
1:35 pm 13:35 Cloudy 73 23 63 17 69 69 N 22 35 29.85 1011 10 16 0.00 0.00
1:55 pm 13:55 Cloudy 73 23 63 17 69 69 NNW 17 28 29.85 1011 10 16 0.00 0.00
2:15 pm 14:15 Mostly Cloudy 75 24 63 17 65 65 N 18 30 29.85 1011 10 16 0.00 0.00
2:35 pm 14:35 Cloudy 75 24 63 17 65 65 NNW 12 19 29.85 1011 10 16 0.00 0.00
2:55 pm 14:55 Mostly Cloudy 77 25 63 17 61 61 NNW 14 22 29.85 1011 10 16 0.00 0.00
3:15 pm 15:15 Mostly Cloudy 79 26 61 16 54 54 NNW 14 22 29.85 1011 10 16 0.00 0.00
3:35 pm 15:35 Mostly Cloudy 77 25 61 16 57 57 N 14 22 29.85 1011 10 16 0.00 0.00
3:55 pm 15:55 Mostly Cloudy 79 26 61 16 54 54 N 17 28 29.85 1011 10 16 0.00 0.00
4:15 pm 16:15 Partly Cloudy 79 26 61 16 54 54 N 15 24 29.85 1011 10 16 0.00 0.00
4:35 pm 16:35 Mostly Cloudy 81 27 61 16 51 51 N 16 26 29.83 1010 10 16 0.00 0.00
4:55 pm 16:55 Mostly Cloudy 79 26 59 15 51 51 NNW 14 22 29.85 1011 10 16 0.00 0.00
5:15 pm 17:15 Mostly Cloudy 79 26 59 15 51 51 N 16 26 29.85 1011 10 16 0.00 0.00
5:35 pm 17:35 Mostly Cloudy 79 26 59 15 51 51 N 14 22 29.85 1011 10 16 0.00 0.00
5:55 pm 17:55 Mostly Sunny 79 26 59 15 51 51 N 17 28 29.85 1011 10 16 0.00 0.00
6:15 pm 18:15 Sunny 79 26 57 14 48 48 N 18 30 29.85 1011 10 16 0.00 0.00
6:35 pm 18:35 Sunny 77 25 57 14 51 51 N 16 26 29.85 1011 10 16 0.00 0.00
6:55 pm 18:55 Sunny 75 24 59 15 57 57 NNE 16 26 29.88 1012 10 16 0.00 0.00
7:15 pm 19:15 Sunny 73 23 59 15 61 61 NNE 14 22 29.91 1013 10 16 0.00 0.00
7:35 pm 19:35 Sunny 72 22 59 15 65 65 NNE 10 17 29.91 1013 10 16 0.00 0.00
7:55 pm 19:55 Sunny 70 21 59 15 69 69 NNE 6 9 29.91 1013 10 16 0.00 0.00
8:15 pm 20:15 Sunny 68 20 59 15 73 73 N 6 9 29.91 1013 10 16 0.00 0.00
8:35 pm 20:35 Clear 68 20 57 14 69 69 N 6 9 29.91 1013 10 16 0.00 0.00
8:55 pm 20:55 Clear 66 19 57 14 73 73 N 6 9 29.97 1015 10 16 0.00 0.00
9:15 pm 21:15 Clear 66 19 57 14 73 73 N 5 7 29.97 1015 5 8 0.00 0.00
9:35 pm 21:35 Clear 64 18 57 14 78 78 N 7 11 29.97 1015 4 6 0.00 0.00
9:55 pm 21:55 Clear 63 17 55 13 77 77 NNE 7 11 29.97 1015 5 8 0.00 0.00
10:15 pm 22:15 Clear 63 17 55 13 77 77 NNE 7 11 30.00 1016 9 14 0.00 0.00
10:35 pm 22:35 Clear 63 17 57 14 83 83 N 5 7 30.00 1016 10 16 0.00 0.00
10:55 pm 22:55 Clear 64 18 57 14 78 78 N 5 7 30.00 1016 10 16 0.00 0.00
11:15 pm 23:15 Clear 63 17 57 14 83 83 Calm 30.00 1016 10 16 0.00 0.00
11:35 pm 23:35 Clear 63 17 55 13 77 77 NW 5 7 30.00 1016 10 16 0.00 0.00
11:55 pm 23:55 Clear 63 17 55 13 77 77 NW 5 7 30.00 1016 10 16 0.00 0.00

Powered by AerisWeather